This demonstration page uses our WeatherBlox Daily Observations layout. Learn more.

Left ArrowRight Arrow

38.88101, -77.10428

Hourly Observations for December 1, 2019

Temp ( °F °C ) Dew Point ( °F °C ) Humidity (%) Winds ( mph kmh ) Pressure ( in mb ) Visibility ( mi km ) Precip ( " mm )
12:52 am 00:52 Cloudy 43 6.1 30 -1.1 60 60 S 6 9 29.98 1015 10 16.0934 0 0
1:34 am 01:34 Cloudy 42 5.6 31 -0.6 65 65 SSE 7 11 30 1016 10 16.0934 0 0
1:52 am 01:52 Cloudy 42 5.6 32 0 68 68 SSE 9 15 29.98 1015 10 16.0934 0 0
2:52 am 02:52 Cloudy 42 5.6 33 0.6 71 71 ESE 9 15 29.95 1014 10 16.0934 0 0
3:01 am 03:01 Cloudy 42 5.6 34 1.1 73 73 SE 9 15 29.94 1014 10 16.0934 0 0
3:12 am 03:12 Cloudy with Light Rain 41 5 34 1.1 76 76 SE 9 15 29.94 1014 10 16.0934 0.001 0.001
3:25 am 03:25 Cloudy with Light Rain 41 5 35 1.7 79 79 SE 9 15 29.94 1014 10 16.0934 0.001 0.001
3:46 am 03:46 Cloudy with Drizzle 39 4 37 3 93 93 ESE 7 11 29.91 1013 6 9.65604 0.001 0.001
3:52 am 03:52 Cloudy with Drizzle 40 4.4 37 2.8 89 89 ESE 7 11 29.91 1013 7 11.26538 0.001 0.001
4:10 am 04:10 Cloudy with Drizzle 40 4.4 37 2.8 89 89 ESE 8 13 29.91 1013 8 12.87472 0.001 0.001
4:52 am 04:52 Cloudy with Drizzle 40 4.4 37 2.8 89 89 E 5 7 29.89 1012 10 16.0934 0.001 0.001
5:22 am 05:22 Cloudy with Light Rain 40 4.4 38 3.3 93 93 ESE 5 7 29.88 1012 2.5 4.02335 0.01 0.254
5:30 am 05:30 Cloudy with Light Rain 40 4.4 38 3.3 93 93 ESE 6 9 29.88 1012 3 4.82802 0.02 0.508
5:52 am 05:52 Cloudy with Light Rain 40 4.4 38 3.3 93 93 SE 5 7 29.88 1012 5 8.0467 0.04 1.016
6:52 am 06:52 Cloudy with Drizzle 40 4.4 38 3.3 93 93 ESE 7 11 29.85 1011 6 9.65604 0.04 1.016
7:47 am 07:47 Cloudy with Drizzle 39 4 37 3 93 93 SE 7 11 29.85 1011 6 9.65604 0.001 0.001
7:52 am 07:52 Cloudy with Drizzle 40 4.4 38 3.3 93 93 SE 7 11 29.85 1011 6 9.65604 0.001 0.001
8:52 am 08:52 Cloudy 41 5 39 3.9 93 93 ESE 12 19 29.79 1009 10 16.0934 0.01 0.254
9:52 am 09:52 Cloudy with Light Rain 42 5.6 40 4.4 92 92 ESE 12 19 29.77 1008 5 8.0467 0.03 0.762
10:17 am 10:17 Cloudy with Rain 43 6.1 41 5 93 93 VRB 3 6 29.77 1008 6 9.65604 0.02 0.508
10:48 am 10:48 Cloudy with Rain 43 6 41 5 93 93 NE 9 15 29.74 1007 2.5 4.02335 0.06 1.524
10:52 am 10:52 Cloudy with Rain 43 6.1 41 5 93 93 ENE 9 15 29.73 1007 2.5 4.02335 0.08 2.032
11:12 am 11:12 Cloudy with Light Rain 43 6.1 42 5.6 97 97 NE 9 15 29.74 1007 5 8.0467 0.05 1.27
11:52 am 11:52 Cloudy with Light Rain 43 6.1 42 5.6 97 97 NE 9 15 29.65 1004 5 8.0467 0.11 2.794
12:52 pm 12:52 Cloudy with Heavy Rain 45 7.2 43 6.1 93 93 E 8 13 29.59 1002 5 8.0467 0.04 1.016
1:12 pm 13:12 Cloudy with Light Rain 45 7.2 44 6.7 97 97 NE 6 9 29.56 1001 2 3.21868 0.03 0.762
1:32 pm 13:32 Cloudy with Rain 45 7.2 44 6.7 97 97 NE 8 13 29.56 1001 1.5 2.41401 0.06 1.524
1:52 pm 13:52 Cloudy with Light Rain 45 7.2 43 6.1 93 93 N 8 13 29.54 1000 1.75 2.816345 0.09 2.286
2:00 pm 14:00 Cloudy with Light Rain 45 7.2 43 6.1 93 93 N 9 15 29.53 1000 2.5 4.02335 0.01 0.254
2:10 pm 14:10 Cloudy with Light Rain 45 7.2 43 6.1 93 93 N 7 11 29.53 1000 4 6.43736 0.01 0.254
2:28 pm 14:28 Cloudy with Light Rain 45 7.2 44 6.7 97 97 N 8 13 29.53 1000 2 3.21868 0.03 0.762
2:52 pm 14:52 Cloudy with Light Rain 45 7.2 44 6.7 97 97 N 9 15 29.51 999 2 3.21868 0.05 1.27
3:17 pm 15:17 Cloudy with Mist and Fog 45 7.2 43 6.1 93 93 N 10 17 29.5 999 4 6.43736 0.001 0.001
3:35 pm 15:35 Cloudy with Drizzle 45 7.2 43 6.1 93 93 N 7 11 29.5 999 3 4.82802 0.001 0.001
3:44 pm 15:44 Cloudy with Drizzle 45 7.2 43 6.1 93 93 NNE 9 15 29.5 999 2.5 4.02335 0.001 0.001
3:52 pm 15:52 Cloudy with Drizzle 45 7.2 43 6.1 93 93 N 8 13 29.49 999 2.5 4.02335 0.001 0.001
4:00 pm 16:00 Cloudy with Drizzle 45 7.2 43 6.1 93 93 N 8 13 29.5 999 3 4.82802 0.01 0.254
4:28 pm 16:28 Cloudy 45 7.2 43 6.1 93 93 N 8 13 29.5 999 7 11.26538 0.01 0.254
4:52 pm 16:52 Cloudy 45 7.2 43 6.1 93 93 NNE 12 19 29.49 999 9 14.48406 0.01 0.254
5:05 pm 17:05 Cloudy 45 7.2 43 6.1 93 93 NNE 13 20 29.5 999 10 16.0934 0 0
5:36 pm 17:36 Cloudy 45 7.2 44 6.7 97 97 N 8 13 29.5 999 10 16.0934 0 0
5:52 pm 17:52 Cloudy 45 7.2 44 6.7 97 97 N 8 13 29.49 999 10 16.0934 0 0
6:47 pm 18:47 Cloudy 45 7 43 6 93 93 NW 9 15 29.5 999 10 16.0934 0 0
6:52 pm 18:52 Cloudy 45 7.2 43 6.1 93 93 NNW 8 13 29.5 999 10 16.0934 0 0
7:10 pm 19:10 Cloudy 45 7.2 43 6.1 93 93 NW 9 15 29.5 999 10 16.0934 0 0
7:52 pm 19:52 Cloudy 44 6.7 42 5.6 93 93 NW 8 13 29.51 999 10 16.0934 0 0
8:52 pm 20:52 Cloudy 42 5.6 40 4.4 92 92 WNW 10 17 29.52 1000 10 16.0934 0 0
9:48 pm 21:48 Cloudy 41 5 37 3 87 87 NW 13 20 29.53 1000 10 16.0934 0 0
9:52 pm 21:52 Cloudy 41 5 38 3.3 89 89 NW 12 19 29.54 1000 10 16.0934 0 0
10:24 pm 22:24 Cloudy 40 4.4 37 2.8 89 89 NNW 10 17 29.53 1000 10 16.0934 0 0
10:52 pm 22:52 Cloudy 40 4.4 38 3.3 93 93 NNW 9 15 29.54 1000 10 16.0934 0 0
11:19 pm 23:19 Cloudy 40 4.4 37 2.8 89 89 NNW 9 15 29.53 1000 10 16.0934 0 0
11:52 pm 23:52 Cloudy 40 4.4 37 2.8 89 89 NW 9 15 29.54 1000 10 16.0934 0 0

Powered by AerisWeather